This is the latest recevied weather packets stored in our database for station/object K3FAZ. If no packets are shown the sender has not sent any weather packets the latest 10 day(s).
| Time | Temp. | Humidity | Pressure | Rain* | Wind** | Luminosity | Snow |
|---|---|---|---|---|---|---|---|
| 1777645605 | 8.33° C | 81% | 1015.6 hPa | 0 mm | - | 518 W/m² | - |
| 1777645301 | 8.33° C | 83% | 1015.6 hPa | 0 mm | - | 335 W/m² | - |
| 1777644997 | 7.78° C | 86% | 1015.6 hPa | 0 mm | - | 310 W/m² | - |
| 1777644695 | 7.22° C | 89% | 1015.8 hPa | 0 mm | - | 225 W/m² | - |
| 1777644390 | 7.22° C | 89% | 1015.7 hPa | 0 mm | - | 173 W/m² | - |
| 1777644088 | 6.67° C | 90% | 1015.6 hPa | 0 mm | - | 167 W/m² | - |
| 1777643784 | 6.67° C | 92% | 1015.7 hPa | 0 mm | - | 220 W/m² | - |
| 1777643482 | 6.11° C | 95% | 1015.6 hPa | 0 mm | - | 185 W/m² | - |
| 1777643178 | 6.11° C | 97% | 1015.8 hPa | 0 mm | - | 126 W/m² | - |
| 1777642875 | 5.56° C | 98% | 1015.7 hPa | 0 mm | - | 144 W/m² | - |
| 1777642572 | 5.56° C | 99% | 1015.7 hPa | 0 mm | - | 158 W/m² | - |
| 1777642268 | 5.56° C | 99% | 1015.6 hPa | 0 mm | - | 160 W/m² | - |
| 1777641965 | 5.56° C | 99% | 1015.8 hPa | 0 mm | - | 136 W/m² | - |
| 1777641661 | 5° C | 99% | 1015.8 hPa | 0 mm | - | 146 W/m² | - |
| 1777641356 | 5° C | 99% | 1016 hPa | 0 mm | - | 117 W/m² | - |
| 1777641052 | 5° C | 99% | 1016.1 hPa | 0 mm | - | 122 W/m² | - |
| 1777640748 | 5° C | 99% | 1016.3 hPa | 0 mm | - | 155 W/m² | - |
| 1777640445 | 4.44° C | 99% | 1016.1 hPa | 0 mm | - | 239 W/m² | - |
| 1777640142 | 4.44° C | 99% | 1016 hPa | 0 mm | - | 222 W/m² | - |
| 1777639838 | 3.89° C | 99% | 1016.2 hPa | 0 mm | - | 166 W/m² | - |
| 1777639536 | 3.89° C | 99% | 1016.1 hPa | 0 mm | - | 163 W/m² | - |
| 1777639233 | 3.33° C | 99% | 1016 hPa | 0 mm | - | 130 W/m² | - |
| 1777638929 | 3.33° C | 99% | 1016.3 hPa | 0 mm | - | 113 W/m² | - |
| 1777638624 | 3.33° C | 99% | 1016.3 hPa | 0 mm | - | 104 W/m² | - |
| 1777638322 | 3.33° C | 99% | 1016.4 hPa | 0 mm | - | 106 W/m² | - |
* Rain latest hour (hover to see other rain measurements)
** Current wind speed in m/s (hover to see current wind gust speed)